{"data":{"norad_id":65813,"intl_designator":"2025-218Y","name":"STARLINK-35215","alt_names":[],"object_type":"PAYLOAD","status":"ACTIVE","operator":null,"country":"US","launch_date":"2025-09-26","launch_site_code":"AFWTR","launch_vehicle":null,"mission":null,"orbit_class":"UNKNOWN","rcs_meters":null,"size_class":null,"mass_kg":null,"dimensions":null,"purposes":["comms"],"wikipedia_slug":null,"has_3d_model":false,"image_url":null,"decayed_at":null,"tle_current":{"epoch":"2026-09-20T13:41:59.319744Z","epoch_age_seconds":100011,"freshness":"FRESH","line1":"1 65813U 25218Y   26263.57082546  .00009847  00000+0  30693-3 0  9998","line2":"2 65813  97.2847 120.9376 0001608  81.3503 278.7922 15.33447129 54347","mean_motion":15.33447129,"eccentricity":0.0001608,"inclination_deg":97.2847,"raan_deg":120.9376,"arg_perigee_deg":81.3503,"mean_anomaly_deg":278.7922,"bstar":0.00030693,"rev_number":5434,"period_min":93.906074279787,"perigee_km":464.43637732585,"apogee_km":466.63730283282,"semimajor_km":6843.6738400793,"source":"CELESTRAK","updated_at":"2026-09-21T09:00:35.718366Z"}}}